Location: Newark
(52.4787°S, 179.0532°W)
Time: 02:32:12
(UTC+00:00)

Transit 2A Rocket - Pass Details

Date: 23 November 2019
Orbit: 594 x 909 km, 66.7° (Epoch: 07 December)

Event Time Altitude Azimuth Distance (km) Brightness Sun altitude
Rises 00:44:28 0° 248° (WSW) 3,508 8.5 55.6°
Reaches altitude 10° 00:47:36 10° 232° (SW) 2,600 7.8 55.4°
Maximum altitude 00:52:11 21° 184° (S) 1,931 7.0 55.0°
Drops below altitude 10° 00:56:48 10° 135° (SE) 2,623 7.5 54.7°
Sets 00:59:59 0° 119° (ESE) 3,549 8.1 54.4°
